• MPC Preparation (Info)

  • MPEC 2014-G53 : 2014 GL35

    The following Minor Planet Electronic Circular may be linked-to from your own Web pages, but must not otherwise be redistributed electronically.

    A form allowing access to any MPEC is at the bottom of this page.


    Read MPEC 2014-G52 Read MPEC 2014-G54


    M.P.E.C. 2014-G53                                Issued 2014 Apr. 8, 17:14 UT
    
         The Minor Planet Electronic Circulars contain information on unusual
             minor planets and routine data on comets.  They are published
       on behalf of Commission 20 of the International Astronomical Union by the
              Minor Planet Center, Smithsonian Astrophysical Observatory,
                              Cambridge, MA 02138, U.S.A.
    
                 Prepared using the Tamkin Foundation Computer Network
    
                                  MPC@CFA.HARVARD.EDU
                URL https://www.minorplanetcenter.net/    ISSN 1523-6714
    
                                       2014 GL35
    
    Observations:
         K14G35L* C2014 04 06.32382 12 43 19.96 -25 23 42.7          18.6 VqEG053703
         K14G35L  C2014 04 06.32882 12 43 19.12 -25 23 14.2          18.7 VqEG053703
         K14G35L  C2014 04 06.33382 12 43 18.18 -25 22 46.5          18.4 VqEG053703
         K14G35L  C2014 04 06.33881 12 43 17.39 -25 22 19.9          18.2 VqEG053703
         K14G35L  C2014 04 06.34435 12 43 16.18 -25 21 47.9          18.6 VqEG053703
         K14G35L  C2014 04 06.34497 12 43 16.02 -25 21 44.0          18.2 VqEG053703
         K14G35L  C2014 04 06.34558 12 43 15.93 -25 21 41.4          17.8 VqEG053703
         K14G35L  C2014 04 06.34620 12 43 15.78 -25 21 37.6          17.8 VqEG053703
         K14G35L  C2014 04 06.34681 12 43 15.60 -25 21 35.4          18.0 VqEG053703
         K14G35L  C2014 04 06.39807 12 43 06.26 -25 16 49.3          18.7 VqEG053703
         K14G35L  C2014 04 06.39869 12 43 06.20 -25 16 45.9          17.5 VqEG053703
         K14G35L  C2014 04 06.39930 12 43 06.11 -25 16 41.5          17.5 VqEG053703
         K14G35L  C2014 04 06.39991 12 43 05.93 -25 16 39.4          17.3 VqEG053703
         K14G35L  C2014 04 06.40053 12 43 05.91 -25 16 34.6          17.7 VqEG053703
         K14G35L `C2014 04 06.59852 12 42 33.73 -24 58 01.1          18.7 RqEG053D90
         K14G35L `C2014 04 06.60348 12 42 32.84 -24 57 34.1          19.2 RqEG053D90
         K14G35L `C2014 04 06.60844 12 42 31.95 -24 57 07.2          18.6 RqEG053D90
         K14G35L KC2014 04 06.94149612 41 38.22 -24 28 09.9          18.5 VqEG053I93
         K14G35L KC2014 04 06.95068212 41 36.63 -24 27 22.7          18.7 VqEG053I93
         K14G35L KC2014 04 06.95986912 41 35.07 -24 26 34.6          19.0 VqEG053I93
         K14G35L KC2014 04 06.96727 12 41 33.86 -24 25 54.6          19.0 VqEG053958
         K14G35L KC2014 04 06.97364 12 41 32.74 -24 25 20.9          18.8 VqEG053958
         K14G35L KC2014 04 06.98001 12 41 31.63 -24 24 48.0          19.0 VqEG053958
         K14G35L KC2014 04 06.99818 12 41 28.26 -24 23 12.6                tEG053204
         K14G35L KC2014 04 07.01121 12 41 26.04 -24 22 05.1          18.3 RtEG053204
         K14G35L |C2014 04 07.22296 12 40 52.88 -24 03 13.4          19.1 VuEG053807
         K14G35L |C2014 04 07.22590 12 40 52.39 -24 02 58.3          19.6 VuEG053807
         K14G35L |C2014 04 07.22883 12 40 51.89 -24 02 43.8          19.4 VuEG053807
         K14G35L  C2014 04 07.59503 12 39 57.46 -23 32 28.9          18.8 RoEG053300
         K14G35L  C2014 04 07.59674 12 39 57.24 -23 32 21.1          19.0 RoEG053300
         K14G35L  C2014 04 07.59837 12 39 56.89 -23 32 13.0          18.9 RoEG053300
         K14G35L  C2014 04 07.60004 12 39 56.68 -23 32 03.9          19.0 RoEG053300
         K14G35L KC2014 04 07.93989112 39 07.18 -23 03 48.3          19.2 VqEG053K93
         K14G35L KC2014 04 07.94422512 39 06.53 -23 03 27.3          19.5 VqEG053K93
         K14G35L KC2014 04 07.94831912 39 05.90 -23 03 08.0          18.8 VqEG053K93
         K14G35L KC2014 04 08.51035 12 37 49.97 -22 19 03.3          18.4 VqEG053E23
         K14G35L KC2014 04 08.52648 12 37 47.59 -22 17 48.9          18.5 VqEG053E23
    
    Observer details:
    204 Schiaparelli Observatory.  Observer L. Buzzi.  0.60-m f/4.64 reflector
        + CCD.
    300 Bisei Spaceguard Center--BATTeRS.  Observers S. Okumura, S. Urakawa.
        1.0-m f/3.0 reflector + CCD.
    703 Catalina Sky Survey.  Observer R. E. Hill.  Measurers E. J. Christensen,
        A. R. Gibbs, A. D. Grauer, R. E. Hill, J. A. Johnson, R. A. Kowalski,
        S. M. Larson, F. C. Shelly.  0.68-m Schmidt + CCD.
    807 Cerro Tololo.  Observers T. Linder, R. Holmes.  Measurers T. Linder,
        R. Holmes, K. Baker.  0.41-m f/11 Ritchey-Chretien + CCD.
    958 Observatoire de Dax.  Observers P. Dupouy, J. B. de Vanssay.  Measurer
        P. Dupouy.  0.43-m f/2.7 reflector + CCD.
    D90 RAS Observatory, Moorook.  Observer K. Hills.  0.41-m f/9 Ritchey-Chretien
        + CCD.
    E23 Arcadia.  Observer A. Hidas.  0.35-m Schmidt-Cassegrain + CCD.
    I93 St Pardon de Conques.  Observer F. Losse.  0.40-m f/3.7 reflector + CCD.
    K93 Sutherland-LCOGT C.  Observers E. J. Christensen, S. M. Larson, T. Lister.
        Measurer T. Lister.  1.0-m f/8 Ritchey-Chretien + CCD.
    
    Orbital elements:
    2014 GL35                                                Earth MOID = 0.0888 AU
    Epoch 2014 May 23.0 TT = JDT 2456800.5                  MPC
    M  33.06351              (2000.0)            P               Q
    n   0.30462984     Peri.  218.34018     +0.13044208     -0.98669567
    a   2.1875320      Node   224.40700     +0.94043124     +0.15412904
    e   0.7850512      Incl.    7.97125     +0.31396488     -0.05172912
    P   3.24           H   20.4           G   0.15           U   8
    Residuals in seconds of arc
    140406 703  0.9-  0.6-    140406 703  0.8+  0.9+    140407 807  0.1-  0.1-
    140406 703  0.3+  0.1+    140406 D90  0.1-  0.1+    140407 807  0.2-  0.6-
    140406 703  0.2+  0.0     140406 D90  0.1-  0.2+    140407 300  0.3-  0.2+
    140406 703  2.1+  1.2-    140406 D90  0.0   0.3+    140407 300  0.4+  0.5-
    140406 703  0.3-  0.0     140406 I93  0.1+  0.2+    140407 300  0.8-  0.5-
    140406 703  0.9-  0.5+    140406 I93  0.1-  0.7-    140407 300  0.0   0.3+
    140406 703  0.6-  0.3-    140406 I93  0.0   0.7-    140407 K93  0.4-  0.1-
    140406 703  1.1-  0.0     140406 958  0.4+  0.3+    140407 K93  0.1-  0.0
    140406 703  2.0-  1.2-    140406 958  0.0   0.7+    140407 K93  0.1-  0.5-
    140406 703  0.5-  0.1-    140406 958  0.3-  0.2+    140408 E23  0.3+  0.2-
    140406 703  0.2+  0.1-    140406 204  0.1+  0.8+    140408 E23  0.5-  0.4+
    140406 703  0.5+  0.9+    140407 204  0.1-  0.0
    140406 703  0.4-  0.4-    140407 807  0.2-  0.0
    
    Ephemeris:
    2014 GL35                a,e,i = 2.19, 0.79, 8                   q = 0.4702
    Date    TT    R. A. (2000) Decl.     Delta      r     Elong.  Phase     V
    2014 03 09    22 51 02.8 -36 38 01   0.2015  0.8298    32.5   140.0    23.4
    ...
    2014 03 24    15 14 15.9 -62 21 14   0.1296  1.0483   110.0    63.3    18.3
    ...
    2014 04 01    13 05 58.2 -35 55 09   0.1856  1.1606   147.9    27.2    18.3
    ...
    2014 04 07    12 41 28.5 -24 22 35   0.2517  1.2422   161.6    14.8    18.7
    2014 04 08    12 38 59.0 -22 59 08   0.2639  1.2556   162.8    13.7    18.8
    2014 04 09    12 36 46.5 -21 42 31   0.2763  1.2690   163.6    12.8    18.9
    ...
    2014 04 15    12 27 45.6 -15 52 46   0.3558  1.3476   163.2    12.4    19.5
    ...
    2014 04 23    12 22 27.4 -11 12 53   0.4724  1.4491   155.7    16.6    20.5
    ...
    2014 05 08    12 22 33.5 -07 02 11   0.7181  1.6293   140.6    23.1    21.8
    
    A. U. Tomatic                (C) Copyright 2014 MPC           M.P.E.C. 2014-G53
    

    Read MPEC 2014-G52 Read MPEC 2014-G54


    MPEC number:

    Enter an MPEC number in one of the following forms:

    • 1997-B01 (the full form)
    • J97B01 (the packed version of the full form)
    • B01 (the abbreviated form)